User: anonymous   Login
Location: Bonny Doon Airfield
(37.0704°N, 122.1252°W)
Time: 15:38:56
(UTC-07:00)
Language:

BREEZE M DEB (TANK) - Orbit

View from above orbital plane
View from above orbital plane
View from above satellite
View from above satellite

Ground track
Ground track

The orbit data is extracted from the following two-line orbital elements,

1 33437U 08057B   18113.56177397  .00000207  00000-0  66532-4 0  9994
2 33437  49.6043 340.2009 4981398 301.5695  19.1815  5.60847466191267
Epoch (UTC): 23 April 2018 13:28:57
Eccentricity: 0.4981398
inclination: 49.6043°
perigee height: 337 km
apogee height: 13669 km
right ascension of ascending node: 340.2009°
argument of perigee: 301.5695°
revolutions per day: 5.60847466
mean anomaly at epoch: 19.1815°
orbit number at epoch: 19126

The dashed part of the orbit path shows where the satellite is in the earth's shadow,  

DLR